Satellite-Ground Cal/Val Site Overpasses Predictions

Prediction of Satellite NPP Overpassing Cal/Val Site: Antarctic Dome C

Ground Cal/Val Site Location: Latitude: -75.10, Longitude: 123.35; Satellite-Ground Site NADIR distance within 100 km.

Table of predicted overpasses for the next 14.0 days since TLE Epoch: 3/5/2014
Interval Starting Time Ending Time Minimum Distance Time Minimum Distance (km)
1 03/06/2014 07:54:06 03/06/2014 07:54:07 03/06/2014 07:54:07 99.71
2 03/07/2014 07:35:04 03/07/2014 07:35:33 03/07/2014 07:35:19 6.38
3 03/10/2014 14:58:32 03/10/2014 14:59:01 03/10/2014 14:58:46 26.47
4 03/11/2014 14:39:50 03/11/2014 14:40:07 03/11/2014 14:39:58 80.74
5 03/12/2014 07:41:24 03/12/2014 07:41:52 03/12/2014 07:41:38 29.61
6 03/13/2014 07:22:39 03/13/2014 07:22:56 03/13/2014 07:22:48 80.72
7 03/15/2014 15:04:54 03/15/2014 15:05:17 03/15/2014 15:05:05 62.83
8 03/16/2014 14:46:04 03/16/2014 14:46:29 03/16/2014 14:46:16 46.41
9 03/17/2014 07:47:44 03/17/2014 07:48:06 03/17/2014 07:47:55 64.23
